EHI
0 0 0 0 0 0 0 0 0 0 0 0 0 0 0 0 0 0 0 0 0 0 0 0 0 0 0 0 0 0 0 0 0 0 0 0 0 0 0 0 0 0 0
0 0 0 0 0 0 0 0 0 0 0 0 0 0 0 0 0 0 0 0 0 0 0 0 0 0 0 0 0 0 0 0 0 0 0 0 0 0 0 0 0 0 0
0 0 0 0 0 0 0 0 0 0 0 0 0 0 0 0 0 0 0 0 0 0 0 0 0 0 0 0 0 0 0 0 0 0 0 0 0 0 0 0 0 0 0
0 0 0 0 0 0 0 0 0 0 0 0 0 0 0 0 0 0 0 0 0 0 0 0 0 0 0 0 0 0 0 0 0 0 0 0 0 0 0 0 0 0 0
0 0 0 0 0 0 0 0 0 0 0 0 0 0 0 0 0 0 0 0 0 0 0 0 0 0 0 0 0 0 0 0 0 0 0 0 0 0 0 0 0 0 0
0 0 0 0 0 0 0 0 0 0 0 0 0 0 0 0 0 0 0 0 0 0 0 0 0 0 0 0 0 0 0 0 0 0 0 0 0 0 0 0 0 0 0
0 0 0 0 0 0 0 0 0 0 0 0 0 0 0 0 0 0 0 0 0 0 0 0 0 0 0 0 0 0 0 0 0 0 0 0 0 0 0 0 0 0 0
0 0 0 0 0 0 0 0 0 0 0 0 0 0 0 0 0 0 0 0 0 0 0 0 0 0 0 0 0 0 0 0 0 0 0 0 0 0 0 0 0 0 0
0 0 0 0 0 0 0 0 0 0 0 0 0 0 0 0 0 0 0 0 0 0 0 0 0 0 0 0 0 0 0 0 0 0 0 0 0 0 0 0 0 0 0
0 0 0 0 0 0 0 0 0 0 0 0 0 0 0 0 0 0 0 0 0 0 0 0 0 0 0 0 0 0 0 0 0 0 0 0 0 0 0 0 0 0 0
0 0 0 0 0 0 0 0 0 0 0 0 0 0 0 0 0 0 0 0 0 0 0 0 0 0 0 0 0 0 0 0 0 0 0 0 0 0 0 0 0 0 0
0 0 0 0 0 0 0 0 0 0 0 0 0 0 0 0 0 0 0 0 0 0 0 0 0 0 0 0 0 0 0 0 0 0 0 0 0 0 0 0 0 0 0
0 0 0 0 0 0 0 0 0 0 0 0 0 0 0 0 0 0 0 0 0 0 0 0 0 0 0 0 0 0 0 0 0 0 0 0 0 0 0 0 0 0 0
0 0 0 0 0 0 0 0 0 0 0 0 0 0 0 0 0 0 0 0 0 0 0 0 0 0 0 0 0 0 0 0 0 0 0 0 0 0 0 0 0 0 0
0 0 0 0 0 0 0 0 0 0 0 0 0 0 0 0 0 0 0 0 0 0 0 0 0 0 0 0 0 0 0 0 0 0 0 0 0 0 0 0 0 0 0
0 0 0 0 0 0 0 0 0 0 0 0 0 0 0 0 0 0 0 0 0 0 0 0 0 0 0 0 0 0 0 0 0 0 0 0 0 0 0 0 0 0 0
0 0 0 0 0 0 0 0 0 0 0 0 0 0 0 0 0 0 0 0 0 0 0 0 0 0 0 0 0 0 0 0 0 0 0 0 0 0 0 0 0 0 0
0 0 0 0 0 0 0 0 0 0 0 0 0 0 0 0 0 0 0 0 0 0 0 0 0 0 0 0 0 0 0 0 0 0 0 0 0 0 0 0 0 0 0
0 0 0 0 0 0 0 0 0 0 0 0 0 0 0 0 0 0 0 0 0 0 0 0 0 0 0 0 0 0 0 0 0 0 0 0 0 0 0 0 0 0 0
0 0 0 0 0 0 0 0 0 0 0 0 0 0 0 0 0 0 0 0 0 0 0 0 0 0 0 0 0 0 0 0 0 0 0 0 0 0 0 0 0 0 0
0 0 0 0 0 0 0 0 0 0 0 0 0 0 0 0 0 0 0 0 0 0 0 0 0 0 0 0 0 0 0 0 0 0 0 0 0 0 0 0 0 0 0
0 0 0 0 0 0 0 0 0 0 0 0 0 0 0 0 0 0 0 0 0 0 0 0 0 0 0 0 0 0 0 0 0 0 0 0 0 0 0 0 0 0 0
0 0 0 0 0 0 0 0 0 0 0 0 0 0 0 0 0 0 0 0 0 0 0 0 0 0 0 0 0 0 0 0 0 0 0 0 0 0 0 0 0 0 0
0 0 0 0 0 0 0 0 0 0 0 0 0 0 0 0 0 0 0 0 0 0 0 0 0 0 0 0 0 0 0 0 0 0 0 0 0 0 0 0 0 0 0
0 0 0 0 0 0 0 0 0 0 0 0 0 0 0 0 0 0 0 0 0 0 0 0 0 0 0 0 0 0 0 0 0 0 0 0 0 0 0 0 0 0 0
0 0 0 0 0 0 0 0 0 0 0 0 0 0 0 0 0 0 0 0 0 0 0 0 0 0 0 0 0 0 0 0 0 0 0 0 0 0 0 0 0 0 0
Wind_Speed
5 5 5 5 5 5 5 6 6 6 6 6 6 7 7 7 7 7 7 7 8 8 7 8 9 8 6 5 5 4 5 4 5 3 2 2 3 4 3 4 4 4 4
5 5 5 5 5 5 6 6 6 7 7 7 7 7 8 7 8 8 8 8 8 8 8 8 8 7 8 6 5 6 5 5 5 5 3 3 4 4 4 4 3 3 4
5 5 5 5 5 6 6 6 6 6 7 7 7 7 8 8 8 8 8 8 8 8 8 8 8 8 9 6 6 6 5 4 4 4 3 2 2 2 3 3 4 3 3
5 5 5 6 6 6 6 6 6 6 6 6 7 7 8 8 8 7 7 7 7 6 7 7 8 8 8 8 6 6 5 4 4 3 3 3 2 2 2 2 3 3 3
5 5 6 6 6 6 6 6 6 6 6 6 6 7 6 6 6 7 6 6 6 6 6 6 6 6 7 7 5 6 5 4 4 4 3 3 3 2 3 2 3 3 3
6 6 6 6 5 5 5 5 5 5 6 5 6 5 6 5 6 7 5 5 5 6 5 5 5 6 6 7 7 7 6 6 6 5 4 5 5 4 3 3 2 3 3
6 6 6 5 5 5 5 5 5 5 5 5 5 5 5 5 5 4 4 3 4 5 5 4 3 4 4 5 6 7 7 7 7 6 6 5 4 4 4 4 4 4 4
6 6 6 6 5 5 5 5 5 4 4 4 4 4 4 4 3 2 3 4 4 4 4 5 4 4 4 4 4 4 4 4 5 5 5 4 3 3 4 4 3 2 2
6 6 6 6 6 6 5 5 4 4 5 4 4 4 4 3 2 2 1 2 2 2 3 3 4 4 5 4 3 4 3 2 2 2 1 1 2 2 2 1 1 2 2
6 6 6 6 6 6 5 5 4 4 4 4 3 3 3 2 2 1 1 2 2 1 1 2 3 3 4 5 3 4 4 3 2 3 2 2 2 2 2 2 2 3 2
6 6 6 5 5 5 5 4 3 2 2 3 2 2 2 2 1 1 1 1 1 2 1 1 2 3 4 4 3 2 3 2 2 2 2 1 1 0 0 1 1 2 3
5 5 5 5 4 4 3 3 2 1 1 1 1 1 1 1 1 0 0 1 1 1 1 1 2 3 3 3 3 4 5 4 2 2 1 1 1 0 1 1 2 2 2
5 5 4 4 4 3 2 2 1 1 1 1 1 1 1 1 1 1 1 1 1 0 1 2 2 4 3 3 4 5 4 2 2 2 1 0 0 0 1 1 1 1 1
5 4 4 3 3 2 2 2 1 1 1 1 1 1 1 0 0 0 0 1 2 2 2 3 5 5 4 4 4 3 2 2 1 1 1 1 1 0 0 1 1 1 1
4 4 3 3 2 2 2 1 1 1 1 1 1 1 1 1 0 1 1 1 1 2 3 3 2 2 2 2 2 2 2 1 1 1 1 1 1 0 1 1 1 1 1
3 3 2 2 2 2 1 1 2 1 1 1 1 1 0 1 2 2 3 4 5 5 4 3 2 2 1 2 2 2 1 1 1 1 1 1 0 0 1 1 1 1 0
3 3 2 2 2 2 1 1 1 1 2 2 2 2 2 2 3 3 4 5 5 4 3 2 2 1 1 1 1 1 1 1 1 0 0 0 0 0 0 1 1 1 1
3 3 2 2 2 1 1 1 0 0 0 1 1 2 2 3 3 4 4 4 3 2 2 2 1 1 1 1 1 1 1 1 1 0 0 0 0 0 0 1 1 1 1
3 2 2 2 1 1 1 0 0 0 0 0 1 1 2 2 3 4 3 2 2 1 1 1 1 1 1 1 1 1 1 1 0 0 0 0 0 0 0 1 1 2 2
2 3 2 1 1 1 0 0 0 0 0 0 0 0 0 1 1 1 1 1 1 1 1 1 1 1 1 1 1 1 1 1 1 0 0 0 0 0 0 1 1 1 2
2 2 2 2 1 1 0 0 0 0 0 0 0 0 1 1 1 1 1 1 1 1 1 1 1 1 1 1 1 1 1 1 0 0 0 0 0 1 1 1 1 1 1
2 1 1 1 1 1 1 0 0 0 0 0 0 1 1 1 1 1 1 1 1 1 1 1 1 1 1 1 1 1 1 1 1 0 0 0 0 0 1 1 1 1 1
1 1 1 1 1 1 0 0 0 1 1 0 0 0 0 0 1 1 1 1 1 1 1 1 1 0 0 0 1 1 1 1 1 1 1 1 1 1 1 1 2 2 2
1 1 1 1 0 0 0 0 0 0 1 1 1 1 1 1 1 1 1 1 1 1 1 1 1 1 1 0 0 0 1 1 1 1 2 2 1 1 1 1 2 2 2
1 1 1 1 1 0 0 0 0 0 0 0 1 1 1 1 1 1 1 1 1 1 1 1 1 1 1 1 1 1 1 2 2 1 2 2 2 2 2 2 2 2 2
0 0 1 1 1 1 1 0 1 0 1 1 1 1 1 1 1 1 1 1 1 1 1 1 1 1 1 1 1 2 2 3 3 3 2 2 2 2 2 2 2 2 2
Wind_Direction
277 275 275 275 272 268 263 265 268 265 261 258 261 258 254 247 241 237 237 237 230 224 224 223 221 216 216 214 217 224 230 233 243 252 252 233 234 241 242 256 259 259 254
283 276 275 276 273 270 268 266 266 265 263 259 257 257 255 249 244 238 238 239 232 227 223 223 221 214 214 210 211 220 227 233 234 240 233 233 240 242 255 263 268 268 273
292 283 280 277 275 272 272 272 268 266 266 264 259 256 254 250 248 244 241 240 236 230 223 221 221 216 213 209 210 214 220 226 227 229 229 232 243 241 253 263 268 272 280
299 291 282 280 276 273 273 273 269 266 265 266 267 262 257 251 246 244 242 239 236 233 228 224 223 221 216 209 210 210 210 215 217 219 220 224 225 230 245 256 265 266 274
301 295 286 283 278 273 272 271 271 267 265 264 264 267 264 256 247 246 239 232 229 228 225 224 226 224 227 216 211 209 205 208 209 214 218 223 219 214 235 245 259 272 275
297 293 293 287 283 279 278 275 271 268 265 263 262 264 269 267 265 253 242 228 222 220 222 222 221 215 216 212 210 211 210 209 209 213 223 227 231 229 232 232 244 262 265
292 291 292 289 285 282 280 275 271 268 267 266 268 271 272 276 278 248 237 234 222 218 219 213 215 209 210 211 204 206 209 214 218 221 222 229 231 225 222 230 236 254 267
288 290 293 290 284 280 276 272 273 271 267 264 266 268 268 267 277 261 233 226 220 215 213 211 207 208 205 207 205 210 216 224 232 233 227 228 232 231 231 236 244 262 289
289 290 290 286 282 280 274 275 273 273 271 265 262 261 261 263 271 273 230 212 211 212 211 207 205 204 191 187 196 199 199 203 189 188 198 189 187 201 218 209 209 235 269
292 292 289 285 277 275 273 270 268 265 267 273 270 261 260 264 257 249 201 196 188 195 195 198 195 190 184 181 190 191 191 187 166 150 151 147 169 171 195 229 223 233 264
295 295 292 288 282 278 275 269 267 268 274 278 280 277 271 265 239 193 195 198 174 175 179 193 181 168 174 174 183 190 180 159 148 148 158 157 153 187 264 297 283 254 255
296 296 295 293 290 284 279 280 281 274 260 275 289 302 305 279 264 207 129 183 150 176 179 173 155 157 165 152 148 135 129 127 130 137 149 158 150 82 7 359 351 335 305
301 298 299 296 292 291 283 274 265 259 246 243 256 262 294 331 8 42 70 119 106 115 118 124 126 132 130 125 120 116 116 115 120 137 151 146 47 54 39 4 359 351 336
302 306 307 303 307 308 294 281 258 232 228 232 240 247 258 283 319 59 78 114 114 103 102 110 107 102 98 98 102 99 97 109 122 132 113 89 69 66 18 327 304 294 319
302 307 309 310 306 304 305 308 275 256 256 253 249 241 224 226 248 53 88 101 103 113 105 98 91 93 101 95 81 73 77 98 109 110 107 92 77 26 355 355 325 308 285
304 306 306 306 303 304 313 340 15 18 15 343 351 335 326 43 87 97 89 94 98 115 115 118 117 121 120 114 106 89 80 80 74 83 103 119 128 358 353 342 322 321 323
290 296 297 295 296 295 288 281 2 35 42 50 65 59 73 91 90 100 101 101 102 110 110 115 123 129 123 117 114 114 111 85 72 76 77 114 146 335 324 324 344 345 335
288 292 293 291 296 288 273 261 235 166 108 54 48 66 79 90 93 92 98 101 97 87 92 113 124 126 133 135 126 119 111 111 109 119 156 196 224 300 316 318 325 333 319
292 293 289 292 300 294 281 284 210 168 120 57 38 69 89 96 93 83 88 96 112 108 101 107 115 122 125 123 117 123 130 137 127 171 208 242 265 317 326 323 325 324 316
287 305 311 297 295 293 244 195 193 184 188 181 81 20 99 114 104 95 89 92 107 112 119 141 139 137 141 142 140 142 137 141 138 151 113 3 325 310 285 289 298 302 306
285 284 291 296 293 282 257 216 215 204 202 226 335 57 128 140 134 125 120 121 128 133 137 148 148 148 156 159 159 159 157 156 160 164 150 293 290 300 307 300 299 300 306
278 280 271 272 276 273 268 255 225 209 198 195 57 89 147 132 125 133 138 140 143 148 154 166 167 162 167 180 178 172 167 165 169 189 215 230 248 268 289 286 288 290 288
269 271 274 283 286 272 263 231 215 218 214 199 176 161 170 168 157 158 157 154 145 140 135 150 171 161 140 163 192 188 189 194 201 207 221 221 216 227 254 266 271 278 284
276 280 277 279 280 246 227 238 235 222 203 198 200 198 204 208 193 178 178 159 155 154 151 164 180 181 166 159 192 197 204 208 207 205 217 221 219 227 242 256 269 276 277
257 266 265 259 251 248 236 217 228 228 223 222 218 212 216 212 204 190 186 176 175 171 166 175 180 185 190 209 226 216 202 220 233 207 203 214 216 229 242 253 261 268 270
234 235 250 260 259 262 251 238 233 227 225 232 229 227 223 215 212 202 189 176 173 174 181 190 190 200 217 223 220 225 231 235 225 216 222 219 227 236 241 247 255 262 267